Denver Centennial, CO

4:36 PM MST on December 14, 2017 (GMT -0700)
Centennial

Weather History for KAPA - June, 2013

Change the Weather History Date:

Wednesday, June 5, 2013

  Actual Average Record
Temperature  
Mean Temperature 50 °F -  
Max Temperature 54 °F 75 °F 91 °F (2006)
Min Temperature 45 °F 47 °F 33 °F (1998)
Degree Days  
Heating Degree Days 15    
Month to date heating degree days 30  
Moisture  
Dew Point 45 °F    
Average Humidity 82    
Maximum Humidity 93    
Minimum Humidity 71    
Precipitation  
Precipitation 0.02 in - - ()
Month to date precipitation 0.26  
Year to date precipitation 5.02  
Sea Level Pressure  
Sea Level Pressure 30.16 in    
Wind  
Wind Speed 7 mph (NE)    
Max Wind Speed 17 mph    
Max Gust Speed 21 mph    
Visibility 8 miles    
Events Rain , Thunderstorm    
Averages and records for this station are not official NWS values.
T = Trace of Precipitation, MM = Missing Value Source: NWS Daily Summary

Daily Weather History Graph

Daily Weather History Graph

Search for Another Location

Airport or City:

Trip Planner

Search our weather history database for the weather conditions in past years. The results will help you decide how hot, cold, wet, or windy it might be!

Date:

Astronomy

Jun. 05, 2013 Rise Set
Actual Time 5:32 AM MDT 8:23 PM MDT
Civil Twilight 5:00 AM MDT 8:55 PM MDT
Nautical Twilight 4:19 AM MDT 9:36 PM MDT
Astronomical Twilight 3:33 AM MDT 10:22 PM MDT
Moon 3:37 AM MDT (6/5) 5:53 PM MDT (6/5)
Length of Visible Light 15h 55m
Length of Day
14h 51m
Waning Crescent, 8% of the Moon is Illuminated
Jun 5
Waning Crescent
Jun 8
New
Jun 16
First Quarter
Jun 23
Full
Jun 29
Last Quarter

Hourly Weather History & Observations

Time (MDT) Temp. Windchill Dew Point Humidity Pressure Visibility Wind Dir Wind Speed Gust Speed Precip Events Conditions
12:04 AM 48.2 °F - 48.2 °F 100% 30.25 in 8.0 mi North 12.7 mph - 0.00 in Rain , Thunderstorm Light Thunderstorms and Rain
12:32 AM 48.2 °F - 48.2 °F 100% 30.25 in 10.0 mi North 6.9 mph - 0.00 in   Overcast
12:41 AM 48.2 °F - 48.2 °F 100% 30.26 in 10.0 mi NW 9.2 mph - 0.00 in   Overcast
12:53 AM 48.9 °F - 48.0 °F 97% 30.14 in 10.0 mi NW 5.8 mph - 0.00 in   Overcast
1:53 AM 48.0 °F - 46.0 °F 93% 30.11 in 10.0 mi North 13.8 mph - 0.00 in   Overcast
2:00 AM 48.2 °F - 46.4 °F 93% 30.23 in 10.0 mi NNE 8.1 mph 17.3 mph N/A   Overcast
2:53 AM 48.0 °F - 42.1 °F 80% 30.09 in 10.0 mi NNE 8.1 mph - N/A   Overcast
3:53 AM 46.9 °F - 42.1 °F 83% 30.10 in 10.0 mi NNE 9.2 mph - N/A   Overcast
4:08 AM 46.4 °F 41.9 °F 42.8 °F 87% 30.23 in 7.0 mi NNE 9.2 mph - N/A   Overcast
4:31 AM 44.6 °F 41.4 °F 44.6 °F 100% 30.23 in 2.5 mi NE 5.8 mph - 0.00 in Rain Light Rain
4:39 AM 46.4 °F 45.2 °F 44.6 °F 93% 30.23 in 2.5 mi NE 3.5 mph - 0.01 in   Light Drizzle
4:53 AM 45.0 °F 42.6 °F 44.1 °F 97% 30.11 in 2.5 mi NE 4.6 mph - 0.01 in   Light Drizzle
5:06 AM 44.6 °F 42.2 °F 44.6 °F 100% 30.24 in 2.5 mi NE 4.6 mph - 0.00 in   Light Drizzle
5:18 AM 44.6 °F 43.1 °F 44.6 °F 100% 30.24 in 3.0 mi NE 3.5 mph - 0.01 in   Light Drizzle
5:53 AM 45.0 °F 42.6 °F 43.0 °F 93% 30.13 in 5.0 mi NE 4.6 mph - 0.01 in   Light Drizzle
6:53 AM 45.0 °F 42.6 °F 43.0 °F 93% 30.14 in 10.0 mi East 4.6 mph - 0.00 in   Light Drizzle
7:53 AM 46.0 °F - 43.0 °F 89% 30.17 in 10.0 mi Calm Calm - 0.00 in   Overcast
8:53 AM 46.9 °F - 43.0 °F 86% 30.16 in 6.0 mi NNE 3.5 mph - N/A   Overcast
9:53 AM 48.0 °F - 44.1 °F 86% 30.16 in 10.0 mi East 3.5 mph - N/A   Overcast
10:53 AM 50.0 °F - 43.0 °F 77% 30.16 in 10.0 mi Calm Calm - N/A   Overcast
11:53 AM 50.0 °F - 44.1 °F 80% 30.16 in 10.0 mi East 5.8 mph - N/A   Overcast
12:53 PM 50.0 °F - 44.1 °F 80% 30.14 in 10.0 mi ENE 6.9 mph - N/A   Overcast
1:46 PM 51.8 °F - 44.6 °F 76% 30.20 in 10.0 mi ENE 8.1 mph - N/A   Overcast
1:53 PM 50.0 °F - 45.0 °F 83% 30.14 in 10.0 mi ENE 9.2 mph - N/A   Overcast
2:53 PM 51.1 °F - 44.1 °F 77% 30.12 in 10.0 mi East 5.8 mph - N/A   Overcast
3:53 PM 52.0 °F - 45.0 °F 77% 30.12 in 10.0 mi East 6.9 mph - N/A   Overcast
4:53 PM 53.1 °F - 45.0 °F 74% 30.12 in 10.0 mi NE 3.5 mph - N/A   Overcast
5:53 PM 53.1 °F - 45.0 °F 74% 30.13 in 10.0 mi Variable 3.5 mph - N/A   Overcast
6:53 PM 54.0 °F - 45.0 °F 72% 30.13 in 10.0 mi Calm Calm - N/A   Overcast
7:53 PM 54.0 °F - 46.0 °F 75% 30.14 in 10.0 mi SSW 4.6 mph - N/A   Overcast
8:53 PM 53.1 °F - 46.0 °F 77% 30.13 in 10.0 mi South 3.5 mph - N/A   Overcast
9:53 PM 53.1 °F - 46.0 °F 77% 30.14 in 10.0 mi Calm Calm - N/A   Overcast
10:53 PM 51.1 °F - 46.0 °F 83% 30.13 in 10.0 mi SSE 4.6 mph - N/A   Scattered Clouds
11:53 PM 48.9 °F - 45.0 °F 86% 30.13 in 10.0 mi South 5.8 mph - N/A   Scattered Clouds